Change the Weather History Date:

Friday, February 1, 2013

  Actual Average Record
Temperature  
Mean Temperature 15 °F -  
Max Temperature 21 °F 25 °F 39 °F (2012)
Min Temperature 9 °F 1 °F -20 °F (2009)
Degree Days  
Heating Degree Days 50    
Moisture  
Dew Point 2 °F    
Average Humidity 60    
Maximum Humidity 73    
Minimum Humidity 48    
Precipitation  
Precipitation 0.00 in - - ()
Sea Level Pressure  
Sea Level Pressure 29.71 in    
Wind  
Wind Speed 8 mph (WNW)    
Max Wind Speed 10 mph    
Max Gust Speed 22 mph    
Visibility 9 miles    
Events Snow    
Averages and records for this station are not official NWS values.
T = Trace of Precipitation, MM = Missing Value Source: NWS Daily Summary

Daily Weather History Graph

Daily Weather History Graph

Search for Another Location

Airport or City:

Trip Planner

Search our weather history database for the weather conditions in past years. The results will help you decide how hot, cold, wet, or windy it might be!

Date:

Astronomy

Feb. 01, 2013 Rise Set
Actual Time 7:03 AM EST 4:54 PM EST
Civil Twilight 6:32 AM EST 5:25 PM EST
Nautical Twilight 5:57 AM EST 5:59 PM EST
Astronomical Twilight 5:23 AM EST 6:34 PM EST
Moon 11:15 PM EST (2/1) 9:18 AM EST (2/1)
Length of Visible Light 10h 52m
Length of Day
9h 50m
Waning Gibbous, 70% of the Moon is Illuminated
Feb 1
Waning Gibbous
Feb 3
Last Quarter
Feb 10
New
Feb 17
First Quarter
Feb 25
Full

Hourly Weather History & Observations

Time (EST) Temp. Windchill Dew Point Humidity Pressure Visibility Wind Dir Wind Speed Gust Speed Precip Events Conditions
12:52 AM 21.0 °F 10.6 °F 7.0 °F 55% 29.44 in 10.0 mi WNW 9.2 mph 17.3 mph N/A   Unknown
1:52 AM 21.0 °F 11.4 °F 3.9 °F 48% 29.46 in 10.0 mi West 8.1 mph 20.7 mph N/A   Overcast
2:52 AM 19.9 °F 14.9 °F 7.0 °F 57% 29.47 in 10.0 mi Variable 3.5 mph - N/A   Overcast
3:52 AM 19.0 °F 10.0 °F 7.0 °F 59% 29.48 in 10.0 mi Variable 6.9 mph 21.9 mph N/A   Overcast
4:52 AM 17.1 °F 5.0 °F 8.1 °F 68% 29.52 in 7.0 mi NNW 10.4 mph 17.3 mph 0.00 in Snow Light Snow
5:15 AM 15.8 °F 3.4 °F 8.6 °F 73% 29.48 in 2.5 mi West 10.4 mph 19.6 mph 0.00 in Snow Light Snow
5:26 AM 15.8 °F 3.4 °F 6.8 °F 68% 29.49 in 4.0 mi West 10.4 mph 18.4 mph 0.00 in Snow Light Snow
5:37 AM 15.8 °F 6.1 °F 6.8 °F 68% 29.50 in 4.0 mi Variable 6.9 mph 18.4 mph 0.00 in Snow Light Snow
5:52 AM 15.1 °F 6.4 °F 6.1 °F 68% 29.56 in 6.0 mi Variable 5.8 mph - 0.00 in   Haze
6:15 AM 14.0 °F 5.1 °F 5.0 °F 67% 29.52 in 10.0 mi Variable 5.8 mph - N/A   Mostly Cloudy
6:29 AM 12.2 °F 1.7 °F 3.2 °F 67% 29.53 in 10.0 mi Variable 6.9 mph - N/A   Scattered Clouds
7:43 AM 12.2 °F 0.7 °F 3.2 °F 67% 29.58 in 7.0 mi NW 8.1 mph 16.1 mph N/A   Mostly Cloudy
7:52 AM 12.0 °F -0.4 °F 3.0 °F 67% 29.65 in 3.0 mi WNW 9.2 mph 17.3 mph 0.00 in Snow Light Snow
8:52 AM 12.9 °F 1.6 °F 3.0 °F 65% 29.68 in 10.0 mi WNW 8.1 mph 17.3 mph 0.00 in   Overcast
9:16 AM 12.2 °F -1.0 °F 1.4 °F 62% 29.63 in 10.0 mi West 10.4 mph 19.6 mph N/A   Partly Cloudy
9:52 AM 14.0 °F 1.2 °F 1.0 °F 56% 29.70 in 10.0 mi West 10.4 mph 19.6 mph N/A   Clear
10:52 AM 16.0 °F 4.4 °F 1.0 °F 52% 29.73 in 10.0 mi WNW 9.2 mph - N/A   Clear
11:52 AM 17.1 °F 7.6 °F 1.0 °F 50% 29.75 in 10.0 mi Variable 6.9 mph 19.6 mph N/A   Clear
12:52 PM 17.1 °F 6.6 °F 1.0 °F 50% 29.75 in 10.0 mi West 8.1 mph 18.4 mph N/A   Partly Cloudy
1:52 PM 18.0 °F 6.1 °F 1.9 °F 50% 29.76 in 10.0 mi West 10.4 mph 17.3 mph N/A   Mostly Cloudy
2:52 PM 17.1 °F 7.6 °F 1.9 °F 52% 29.78 in 10.0 mi NW 6.9 mph 17.3 mph N/A   Mostly Cloudy
3:52 PM 15.1 °F 2.5 °F -0.0 °F 51% 29.82 in 10.0 mi NW 10.4 mph 20.7 mph N/A   Scattered Clouds
4:52 PM 12.9 °F 2.6 °F -0.9 °F 54% 29.85 in 10.0 mi Variable 6.9 mph 16.1 mph N/A   Clear
5:52 PM 10.9 °F -0.8 °F -0.9 °F 59% 29.90 in 10.0 mi WNW 8.1 mph - N/A   Clear
6:52 PM 10.0 °F -0.9 °F -0.9 °F 61% 29.94 in 10.0 mi WNW 6.9 mph - N/A   Scattered Clouds
7:52 PM 10.0 °F 1.8 °F -0.9 °F 61% 29.98 in 10.0 mi Variable 4.6 mph - N/A   Mostly Cloudy
8:16 PM 10.4 °F 2.2 °F -0.4 °F 62% 29.92 in 10.0 mi Variable 4.6 mph - N/A   Mostly Cloudy
8:52 PM 9.0 °F -4.2 °F -0.9 °F 64% 30.01 in 10.0 mi NW 9.2 mph - N/A   Partly Cloudy
9:52 PM 9.0 °F - -2.0 °F 61% 30.03 in 10.0 mi Calm Calm - N/A   Mostly Cloudy
10:52 PM 9.0 °F - -2.0 °F 61% 30.04 in 10.0 mi Calm Calm - N/A   Overcast
11:52 PM 9.0 °F - -2.0 °F 61% 30.05 in 10.0 mi Calm Calm - N/A   Mostly Cloudy